{"data":{"norad_id":68271,"epoch":"2026-05-24T21:18:49.935744Z","epoch_age_seconds":87802,"freshness":"FRESH","line1":"1 68271U 26055K   26144.88807796  .00014087  00000+0  42731-3 0  9991","line2":"2 68271  53.1589 324.1716 0001074  74.4264 285.6857 15.34396910 11611","mean_motion":15.3439691,"eccentricity":0.0001074,"inclination_deg":53.1589,"raan_deg":324.1716,"arg_perigee_deg":74.4264,"mean_anomaly_deg":285.6857,"bstar":0.00042731,"rev_number":1161,"period_min":93.847947073877,"perigee_km":461.97771712553,"apogee_km":463.44713158188,"semimajor_km":6840.8494243537,"source":"CELESTRAK","updated_at":"2026-05-25T13:38:21.891831Z"}}